Location: Chandolas
(44.4033°N, 4.2533°E)
Time: 12:43:56
(UTC+00:00)

Cosmos 372 Rocket - Pass Details

Date: 15 November 2019
Orbit: 739 x 767 km, 74.1° (Epoch: 05 December)

Event Time Altitude Azimuth Distance (km) Brightness Sun altitude
Rises 05:51:01 0° 206° (SSW) 3,197 7.1 -8.7°
Reaches altitude 10° 05:53:23 10° 208° (SSW) 2,272 6.3 -8.3°
Maximum altitude 05:58:31 70° 292° (WNW) 800 3.9 -7.4°
Drops below altitude 10° 06:03:39 10° 17° (NNE) 2,270 6.4 -6.6°
Sets 06:06:02 0° 19° (NNE) 3,194 7.2 -6.2°
